[[{"header":{"parameterUnit":"m.s-1","parameterCategory":1,"la1":30.2991,"la2":30.254,"lo1":-89.0895,"lo2":-89.0444,"dy":0.0017,"dx":0.0017,"nx":28,"ny":28,"refTime":"2024-08-29T21:00:00:Z","depth":0,"parameterNumber":2,"parameterNumberName":"U-component_of_WINDS"},"data":[0,0,0,0,0,0,0,0,0,0,0,0,0,0,0,0,0,0,0,0,0,0,0,0,0,0,0,0,0,0,0,0,0,0,0,0,0,0,0,0,0,0,0,0,0,0,0,0,0,0,0,0,0,0,0,0,0,0,-6.0897,-6.0898,0,-6.1018,-6.1019,-6.1021,-6.0944,-6.0941,-6.0937,-6.0934,-6.1049,-6.1056,-6.1062,0,0,0,0,0,0,0,0,0,0,0,0,0,-6.0592,-6.0598,-6.0896,-6.0898,-6.09,-6.1018,-6.102,-6.1021,-6.0945,-6.0941,-6.0936,-6.0932,-6.1047,-6.1055,-6.1063,0,0,0,0,0,0,0,0,0,0,0,0,0,-6.072,-6.06,-6.0896,-6.0876,-6.0875,-6.1018,-6.102,-6.1022,-6.0946,-6.094,-6.0935,-6.093,-6.1045,-6.1054,-6.1064,-6.123,0,0,-6.1093,-6.1097,0,0,0,0,0,0,0,0,-6.0713,-6.0731,-6.0877,-6.0878,-6.0877,-6.0961,-6.0955,-6.1091,-6.0947,-6.0919,-6.0934,-6.0928,-6.1024,-6.1035,-6.1069,-6.1235,-6.124,-6.1094,-6.11,-6.1104,-6.1106,0,0,0,0,0,0,0,-6.0704,-6.0725,-6.0944,-6.088,-6.088,-6.0859,-6.0871,-6.098,-6.0999,-6.0921,-6.0916,-6.0932,-6.1022,-6.106,-6.1071,-6.1242,-6.1094,-6.1102,-6.1108,-6.1112,-6.1554,-6.156,0,0,0,0,0,0,-6.0698,-6.0719,-6.094,-6.0948,-6.0781,-6.0869,-6.0882,-6.0939,-6.0998,-6.1002,-6.0936,-6.0928,-6.1046,-6.106,-6.1075,-6.1276,-6.1104,-6.1113,-6.1118,-6.1548,-6.1555,-6.1562,0,0,0,0,0,0,-6.0692,-6.0718,-6.0935,-6.0832,-6.0858,-6.088,-6.0944,-6.0944,-6.0982,-6.101,-6.1012,-6.0971,-6.1042,-6.1061,-6.1193,-6.1279,-6.1117,-6.1126,-6.1541,-6.155,-6.1559,-6.1678,0,0,0,0,0,0,-6.0683,-6.0717,-6.0781,-6.0834,-6.0864,-6.1054,-6.0949,-6.0951,-6.1,-6.099,-6.1043,-6.1047,-6.104,-6.1179,-6.1203,-6.1289,-6.1133,-6.1533,-6.1545,-6.1556,-6.1667,-6.169,-6.171,0,0,0,0,0,-6.0673,-6.0807,-6.0785,-6.0812,-6.0946,-6.1059,-6.1076,-6.1068,-6.1007,-6.1071,-6.109,-6.1045,-6.1266,-6.1194,-6.1219,-6.131,-6.1528,-6.1542,-6.1555,-6.1657,-6.1685,-6.171,0,0,0,0,0,0,-6.0759,-6.0813,-6.0789,-6.0945,-6.0999,-6.1046,-6.1127,-6.1097,-6.1167,-6.1154,-6.1138,-6.1151,-6.129,-6.1312,-6.1231,-6.1475,-6.1387,-6.1406,-6.1456,-6.1483,-6.1504,-6.1496,-6.1141,0,0,0,0,0,-6.0797,-6.0887,-6.0928,-6.1062,-6.1091,-6.1105,-6.1154,-6.1143,-6.1197,-6.1218,-6.1245,-6.1297,-6.1378,-6.1431,-6.1507,-6.1669,-6.1681,-6.1744,-6.1766,-6.1784,-6.1801,-6.1891,-6.1921,-6.1606,-6.1606,-6.1606,0,0,-6.0874,-6.0915,-6.0972,-6.1081,-6.1121,-6.1214,-6.1124,-6.1224,-6.1293,-6.1232,-6.136,-6.1383,-6.1439,-6.1588,-6.1654,-6.1611,-6.1891,-6.1801,-6.1815,-6.1822,-6.1908,-6.1938,-6.1964,-6.1615,-6.1614,-6.1612,0,0,-6.1064,-6.1103,-6.1221,-6.1265,-6.1329,-6.1338,-6.1366,-6.142,-6.1434,-6.1563,-6.1521,-6.16,-6.1739,-6.1783,-6.1823,-6.2034,-6.1996,-6.2059,-6.2172,-6.2261,-6.2285,-6.2307,-6.2385,-6.2412,-6.2075,-6.2076,-6.2076,0,-6.1151,-6.1292,-6.1284,-6.1391,-6.144,-6.1394,-6.1513,-6.1554,-6.1638,-6.1672,-6.1623,-6.1801,-6.1835,-6.1995,-6.2047,-6.208,-6.2112,-6.2052,-6.2283,-6.2305,-6.2325,-6.2399,-6.2428,-6.2083,-6.2082,-6.2081,-6.2081,0,-6.1397,-6.1496,-6.1582,-6.1671,-6.1729,-6.1841,-6.185,-6.191,-6.1895,-6.191,-6.2043,-6.2083,-6.2168,-6.2205,-6.2189,-6.2364,-6.2335,-6.2285,-6.2196,-6.2363,-6.2432,-6.246,-6.2094,-6.2091,-6.2089,-6.2087,0,0,-6.1641,-6.1728,-6.176,-6.1802,-6.1871,-6.1945,-6.2055,-6.2143,-6.2196,-6.2255,-6.2348,-6.2469,-6.2425,-6.247,-6.2459,-6.2537,-6.2705,-6.2477,-6.2478,-6.252,-6.2902,-6.2941,-6.2974,-6.2681,-6.2686,-6.269,-6.2898,0,-6.1837,-6.2033,-6.2032,-6.2213,-6.2304,-6.2264,-6.236,-6.2412,-6.2429,-6.2508,-6.2524,-6.2613,-6.2546,-6.2574,-6.2649,-6.2669,-6.2782,-6.2654,-6.2766,-6.277,-6.2754,-6.301,-6.305,-6.3244,-6.2925,-6.293,-6.2933,0,-6.209,-6.2165,-6.2357,-6.2417,-6.2455,-6.2542,-6.2624,-6.27,-6.2758,-6.2765,-6.282,-6.2798,-6.2909,-6.2818,-6.2971,-6.2884,-6.2929,-6.2947,-6.2954,-6.2964,-6.2862,-6.3028,-6.3306,-6.3336,-6.2975,-6.2971,-6.2968,0,-6.2252,-6.24,-6.2535,-6.2571,-6.2643,-6.2706,-6.2739,-6.2792,-6.2846,-6.2917,-6.2952,-6.3033,-6.3078,-6.314,-6.3141,-6.3074,-6.3297,-6.3205,-6.3306,-6.3306,-6.3354,-6.3351,-6.3645,-6.3382,-6.3382,-6.3381,-6.338,0,-6.2471,-6.259,-6.2609,-6.2692,-6.2825,-6.2822,-6.2953,-6.2979,-6.3028,-6.3115,-6.3083,-6.3164,-6.316,-6.3242,-6.3243,-6.3371,-6.339,-6.3399,-6.3398,-6.3403,-6.3402,-6.3432,-6.3419,-6.3389,-6.3387,-6.3386,-6.3384,0,-6.2674,-6.2691,-6.2836,-6.2896,-6.2914,-6.3009,-6.3059,-6.3137,-6.3153,-6.3263,-6.3288,-6.3312,-6.3408,-6.3416,-6.3524,-6.3525,-6.3681,-6.3664,-6.3663,-6.366,-6.3762,-6.3753,-6.4086,-6.413,-6.3838,-6.384,-6.3843,0,-6.2813,-6.2905,-6.2976,-6.3034,-6.3072,-6.3165,-6.3221,-6.3222,-6.3282,-6.3359,-6.3428,-6.3522,-6.3597,-6.3751,-6.3777,-6.3861,-6.3846,-6.3958,-6.3858,-6.3862,-6.385,-6.3846,-6.3856,-6.3977,-6.398,-6.3982,-6.3985,0,-6.3058,-6.3064,-6.3149,-6.3239,-6.3309,-6.3378,-6.3442,-6.3491,-6.35,-6.3568,-6.3669,-6.3727,-6.3842,-6.3935,-6.4019,-6.4049,-6.4019,-6.4016,-6.4044,-6.405,-6.4047,-6.4052,-6.3717,-6.4008,-6.4006,-6.4004,-6.4003,-6.4002,-6.3234,-6.3316,-6.3381,-6.3477,-6.3528,-6.359,-6.3669,-6.3697,-6.3781,-6.3878,-6.3872,-6.3983,-6.4042,-6.4151,-6.4189,-6.4275,-6.4237,-6.4277,-6.4288,-6.4298,-6.431,-6.4033,-6.429,-6.4289,-6.4288,-6.4288,-6.4287,0,-6.348,-6.3521,-6.3611,-6.3706,-6.3782,-6.3751,-6.3822,-6.3887,-6.3987,-6.4046,-6.4123,-6.4239,-6.433,-6.4365,-6.4454,-6.4516,-6.4505,-6.454,-6.4535,-6.4544,-6.4337,-6.4305,-6.4548,-6.4548,-6.4548,-6.4548,-6.4548,-6.4548,-6.3617,-6.3755,-6.3769,-6.3931,-6.397,-6.4082,-6.4126,-6.4184,-6.4231,-6.4364,-6.4442,-6.4466,-6.4516,-6.4609,-6.4692,-6.4699,-6.4734,-6.4776,-6.4778,-6.4584,-6.4558,-6.4533,-6.4502,-6.4783,-6.4783,-6.4977,-6.4979,-6.498]},{"header":{"parameterUnit":"m.s-1","parameterCategory":1,"la1":30.2991,"la2":30.254,"lo1":-89.0895,"lo2":-89.0444,"dy":0.0017,"dx":0.0017,"nx":28,"ny":28,"refTime":"2024-08-29T21:00:00:Z","depth":0,"parameterNumber":3,"parameterNumberName":"V-component_of_WINDS"},"data":[0,0,0,0,0,0,0,0,0,0,0,0,0,0,0,0,0,0,0,0,0,0,0,0,0,0,0,0,0,0,0,0,0,0,0,0,0,0,0,0,0,0,0,0,0,0,0,0,0,0,0,0,0,0,0,0,0,0,-0.8975,-0.8973,0,-0.8746,-0.8743,-0.8741,-0.8599,-0.8598,-0.8597,-0.8597,-0.8359,-0.8354,-0.8348,0,0,0,0,0,0,0,0,0,0,0,0,0,-0.9284,-0.928,-0.8975,-0.8972,-0.897,-0.8746,-0.8743,-0.874,-0.8599,-0.8598,-0.8597,-0.8596,-0.8361,-0.8354,-0.8348,0,0,0,0,0,0,0,0,0,0,0,0,0,-0.9112,-0.9278,-0.8976,-0.8872,-0.8861,-0.8747,-0.8743,-0.8739,-0.8599,-0.8598,-0.8597,-0.8596,-0.8363,-0.8355,-0.8347,-0.8317,0,0,-0.8321,-0.8317,0,0,0,0,0,0,0,0,-0.9122,-0.9101,-0.889,-0.8879,-0.8866,-0.87,-0.8765,-0.8598,-0.8599,-0.8698,-0.8597,-0.8595,-0.8473,-0.8456,-0.8415,-0.8306,-0.8296,-0.832,-0.8315,-0.8312,-0.8309,0,0,0,0,0,0,0,-0.9134,-0.911,-0.8884,-0.8887,-0.8873,-0.8835,-0.881,-0.8733,-0.8595,-0.869,-0.8679,-0.8654,-0.8466,-0.8424,-0.8409,-0.8292,-0.8321,-0.8313,-0.8308,-0.8305,-0.8143,-0.8144,0,0,0,0,0,0,-0.9163,-0.9121,-0.8892,-0.8877,-0.8994,-0.8831,-0.8802,-0.8754,-0.8595,-0.857,-0.8655,-0.8648,-0.8439,-0.8419,-0.84,-0.8351,-0.8312,-0.8304,-0.8299,-0.8142,-0.8143,-0.8144,0,0,0,0,0,0,-0.9171,-0.9144,-0.8901,-0.8996,-0.8962,-0.8827,-0.8774,-0.875,-0.8707,-0.8569,-0.8543,-0.8637,-0.8437,-0.8412,-0.8338,-0.8341,-0.83,-0.8292,-0.8141,-0.8142,-0.8144,-0.8257,0,0,0,0,0,0,-0.918,-0.9148,-0.9137,-0.8997,-0.8958,-0.8845,-0.8774,-0.8747,-0.8694,-0.8682,-0.8545,-0.8522,-0.8434,-0.8351,-0.833,-0.8329,-0.8286,-0.814,-0.8142,-0.8143,-0.8253,-0.8262,-0.827,0,0,0,0,0,-0.9192,-0.9178,-0.9137,-0.911,-0.8942,-0.8846,-0.8823,-0.8723,-0.8695,-0.8681,-0.8591,-0.8526,-0.8345,-0.8345,-0.8319,-0.8316,-0.814,-0.8141,-0.8143,-0.8249,-0.826,-0.827,0,0,0,0,0,0,-0.9321,-0.9158,-0.9111,-0.9052,-0.8964,-0.8822,-0.8802,-0.874,-0.8657,-0.865,-0.8529,-0.8499,-0.8437,-0.8369,-0.8372,-0.8277,-0.8234,-0.8231,-0.8324,-0.8333,-0.8342,-0.8359,-0.8279,0,0,0,0,0,-0.9343,-0.9281,-0.9141,-0.9102,-0.9061,-0.8939,-0.8894,-0.8825,-0.8728,-0.869,-0.8595,-0.8503,-0.8424,-0.8375,-0.8296,-0.8242,-0.8208,-0.8227,-0.8236,-0.8244,-0.8242,-0.8205,-0.8211,-0.815,-0.815,-0.815,0,0,-0.9388,-0.9291,-0.9258,-0.9126,-0.9049,-0.8985,-0.8909,-0.8845,-0.8795,-0.8679,-0.8604,-0.8531,-0.8419,-0.8355,-0.8322,-0.8297,-0.8252,-0.8246,-0.8254,-0.8247,-0.8207,-0.8213,-0.8219,-0.8151,-0.815,-0.815,0,0,-0.9435,-0.9357,-0.9314,-0.9239,-0.9124,-0.9043,-0.9033,-0.89,-0.8847,-0.8769,-0.868,-0.8618,-0.8487,-0.841,-0.8354,-0.837,-0.8305,-0.8347,-0.8393,-0.8358,-0.8363,-0.8367,-0.8369,-0.8372,-0.8346,-0.8346,-0.8346,0,-0.9504,-0.9405,-0.93,-0.924,-0.9183,-0.9076,-0.903,-0.8962,-0.8827,-0.8789,-0.8763,-0.8594,-0.8511,-0.8426,-0.8429,-0.8388,-0.8371,-0.8362,-0.8371,-0.8374,-0.8375,-0.8376,-0.8378,-0.8352,-0.8351,-0.8351,-0.835,0,-0.9494,-0.9427,-0.9406,-0.9278,-0.9219,-0.9167,-0.9052,-0.9004,-0.8939,-0.886,-0.878,-0.8677,-0.8574,-0.8548,-0.8485,-0.8452,-0.844,-0.8395,-0.8349,-0.8389,-0.8387,-0.8387,-0.836,-0.8358,-0.8356,-0.8355,0,0,-0.9617,-0.9431,-0.9425,-0.9364,-0.9228,-0.9173,-0.9115,-0.9013,-0.8973,-0.8883,-0.8829,-0.8719,-0.8675,-0.8611,-0.8538,-0.8508,-0.8522,-0.8465,-0.846,-0.8477,-0.8476,-0.851,-0.8512,-0.8479,-0.8479,-0.8479,-0.8484,0,-0.9642,-0.9533,-0.9436,-0.9362,-0.9296,-0.9192,-0.914,-0.905,-0.8975,-0.8906,-0.8821,-0.8744,-0.8694,-0.8654,-0.862,-0.8528,-0.852,-0.8527,-0.8425,-0.8423,-0.8454,-0.8512,-0.8548,-0.8558,-0.8484,-0.8483,-0.8483,0,-0.9657,-0.9571,-0.9491,-0.9359,-0.9328,-0.9284,-0.9181,-0.9118,-0.9012,-0.8959,-0.8887,-0.8809,-0.874,-0.8702,-0.8603,-0.861,-0.8562,-0.8511,-0.8508,-0.8493,-0.8455,-0.8496,-0.856,-0.8561,-0.8482,-0.8482,-0.8482,0,-0.9752,-0.9616,-0.9549,-0.9501,-0.9346,-0.9317,-0.925,-0.9144,-0.9088,-0.8998,-0.896,-0.8864,-0.8811,-0.8736,-0.8634,-0.8617,-0.8544,-0.8499,-0.8495,-0.8498,-0.8483,-0.8485,-0.8538,-0.8457,-0.8457,-0.8457,-0.8457,0,-0.9789,-0.9743,-0.9589,-0.9548,-0.9492,-0.938,-0.9327,-0.9251,-0.9157,-0.9097,-0.9001,-0.8947,-0.8816,-0.8745,-0.8664,-0.8592,-0.8569,-0.8522,-0.8501,-0.8529,-0.8535,-0.8495,-0.8491,-0.8457,-0.8457,-0.8457,-0.8457,0,-0.9884,-0.978,-0.97,-0.9559,-0.9523,-0.9488,-0.9366,-0.932,-0.9239,-0.9164,-0.914,-0.9011,-0.8922,-0.8813,-0.8689,-0.8634,-0.857,-0.8539,-0.8606,-0.8593,-0.8594,-0.8595,-0.8621,-0.8618,-0.8543,-0.8544,-0.8545,0,-0.9914,-0.9876,-0.9731,-0.9685,-0.9622,-0.9548,-0.9491,-0.9378,-0.9321,-0.9197,-0.9165,-0.907,-0.8986,-0.8849,-0.8743,-0.8647,-0.8611,-0.8627,-0.8596,-0.8625,-0.8608,-0.8611,-0.8604,-0.8635,-0.8636,-0.8637,-0.8638,0,-0.9976,-0.9926,-0.9848,-0.9751,-0.9685,-0.9603,-0.9516,-0.9483,-0.9352,-0.9293,-0.9201,-0.9137,-0.9009,-0.8914,-0.8804,-0.8733,-0.8662,-0.8649,-0.8642,-0.867,-0.8709,-0.8685,-0.8625,-0.8649,-0.8648,-0.8647,-0.8646,-0.8646,-1.0037,-0.9997,-0.9889,-0.9804,-0.9727,-0.9648,-0.9597,-0.9509,-0.9431,-0.9319,-0.9256,-0.9166,-0.9057,-0.8902,-0.8834,-0.8759,-0.8734,-0.8725,-0.8723,-0.8722,-0.8729,-0.8723,-0.8739,-0.8739,-0.8738,-0.8738,-0.8737,0,-1.0092,-1.0017,-0.994,-0.9822,-0.9754,-0.9696,-0.9596,-0.9542,-0.9464,-0.937,-0.929,-0.9182,-0.9089,-0.8975,-0.8873,-0.8835,-0.88,-0.8812,-0.8812,-0.8796,-0.8759,-0.8774,-0.8842,-0.8842,-0.8842,-0.8842,-0.8842,-0.8842,-1.0113,-1.0041,-0.9978,-0.9866,-0.979,-0.9701,-0.9649,-0.9574,-0.9498,-0.9383,-0.9305,-0.9231,-0.9128,-0.9017,-0.8928,-0.8896,-0.8862,-0.8883,-0.8842,-0.8809,-0.88,-0.8791,-0.8804,-0.8877,-0.8877,-0.8885,-0.8885,-0.8885]}]]